Regional Weather Roundup
Issued by NWS

Home | Current Version | Previous Version | Text Only | Print | Product List | Glossary On
Versions: 1 2 3 4 5 6 7 8 9 10 11 12 13 14 15 16 17 18 19 20 21 22 23 24 25 26 27
000
ASUS45 KBOU 281007
RWRCO

WEATHER ROUNDUP FOR COLORADO
NATIONAL WEATHER SERVICE DENVER/BOULDER CO
300 AM MST TUE FEB 28 2017

NOTE: "FAIR" INDICATES FEW OR NO CLOUDS BELOW 12000 FEET WITH NO
SIGNIFICANT WEATHER AND/OR OBSTRUCTIONS TO VISIBILITY.

COZ001>005-013-030-031-281100-
...NORTHWEST COLORADO...

CITY           SKY/WX    TMP DP  RH WIND       PRES   REMARKS
CRAIG          CLOUDY    19  14  81 CALM      29.76F
HAYDEN         FAIR      18  12  79 CALM      29.74S
MEEKER         CLOUDY    23  20  88 CALM      29.72F
MOUNT WERNER   NOT AVBL
STEAMBOAT SPGS CLOUDY    17  16  93 CALM      29.72S
WALDEN         NOT AVBL
$$

COZ006>008-011-281100-
...WEST CENTRAL VALLEYS...

CITY           SKY/WX    TMP DP  RH WIND       PRES   REMARKS
GRAND JUNCTION LGT SNOW  32  31  96 W8        29.70S FOG     WCI  25
MONTROSE       CLOUDY    34  30  85 S13G21    29.71F WCI  25
EAGLE          FLURRIES  25  21  85 W10       29.69S WCI  15
RIFLE          LGT SNOW  28  26  92 NW5       29.73S FOG     WCI  23
DELTA          CLOUDY    39  32  75 NE3       29.68F
NUCLA          CLOUDY    34  30  86 S8        29.73F WCI  27
$$

COZ017>023-064>068-281100-
...SOUTHWEST COLORADO...

CITY           SKY/WX    TMP DP  RH WIND       PRES   REMARKS
DURANGO        LGT SNOW  31  30  96 W6        29.72F VSB 1   WCI  25
CORTEZ         LGT SNOW  32  32 100 W8        29.74F FOG     WCI  25
PAGOSA SPRINGS LGT SNOW  32  32 100 SW6       29.72F VSB 1   WCI  26
TELLURIDE      LGT SNOW  26  24  92 NW10G18   29.71S VSB 1   WCI  16
WOLF CREEK PAS CLOUDY    18  18 100 S28G45    29.70F WCI  -1
$$

COZ009-010-012-014-032>034-037-058>063-281100-
...CENTRAL COLORADO...

CITY           SKY/WX    TMP DP  RH WIND       PRES   REMARKS
ASPEN          LGT SNOW  27  25  92 CALM      29.64F VSB 1
BUENA VISTA    CLOUDY    28  26  91 CALM      29.67S
COPPER MTN     LGT SNOW  19  12  73 MISG      29.62F
BERTHOUD PASS  LGT SNOW  10   0  61 SW7       29.60F VSB 1   WCI   0
COTTONWOOD PAS LGT SNOW  27  23  86 W5        29.66S WCI  21
GUNNISON       LGT SNOW  27  25  92 SW7       29.69S FOG     WCI  19
KREMMLING      LGT SNOW  23  21  93 CALM      29.70F VSB 1
LEADVILLE      LGT SNOW  18  15  88 CALM      29.62F FOG
MONARCH PASS   CLOUDY    18  14  86 W20       29.75S WCI   1
SALIDA         CLOUDY    34  24  68 CALM      29.74S
SUNLIGHT       NOT AVBL
WILKERSON PASS LGT SNOW  19  16  86 SW5       29.68F WCI  13
$$

COZ069>075-281100-
...SAN LUIS VALLEY/SANGRE DE CRISTO MOUNTAINS...

CITY           SKY/WX    TMP DP  RH WIND       PRES   REMARKS
ALAMOSA        LGT SNOW  32  31  96 S21G29    29.68F FOG     WCI  20
LA VETA PASS   LGT SNOW  27  23  86 S28G44    29.67F VSB 3/4 WCI  11
SAGUACHE       LGT SNOW  27  25  93 CALM      29.70F
$$

COZ035-036-038>040-281100-
...NORTHERN COLORADO FRONT RANGE...

CITY           SKY/WX    TMP DP  RH WIND       PRES   REMARKS
DENVER INTL AP MOCLDY    23  17  78 SE12      29.68F WCI  12
DMNS CITY PARK   N/A     29  19  64 SE7       29.69F WCI  22
AURORA         MOCLDY    24  18  78 S8        29.69F WCI  14
FRONT RANGE AP FAIR      27  19  74 SE8       29.68F WCI  18
ERIE MUNI ARPT FAIR      28  20  74 S5        29.69F WCI  22
BOULDER MUN AP FAIR      32  23  69 S7        29.67F WCI  26
CENTENNIAL     FAIR      26  17  68 S7        29.68F WCI  18
BROOMFIELD     FAIR      30  21  69 S8        29.68F WCI  23
FORT COLLINS   FAIR      30  23  75 S8        29.68F WCI  22
LONGMONT       NOT AVBL
$$

COZ041-046-047-076>085-087-088-281100-
...PIKES PEAK/PALMER DIVIDE AND SOUTHERN FOOTHILLS...

CITY           SKY/WX    TMP DP  RH WIND       PRES   REMARKS
COLO. SPRINGS  FAIR      28  16  60 NE17      29.64F WCI  16
A. F. ACADEMY  FAIR      28  16  61 NW12      29.64R WCI  17
SCHRIEVER AFB  FAIR      24  17  75 N18G26    29.66F WCI  10
ELLICOTT       FAIR     N/A N/A N/A NE21G28   29.64F
FALCON         FAIR      23  16  74 N12       29.66F WCI  11
FORT CARSON    FAIR      28  16  61 N12       29.65R WCI  18
LIMON          FAIR     N/A N/A N/A N9        29.69F
MONUMENT HILL  FAIR      19  16  86 E7        29.67F WCI  10
TRINIDAD       FAIR      45  25  45 SW17      29.63F
$$

COZ042>045-048>051-090-091-281100-
...NORTHEAST COLORADO...

CITY           SKY/WX    TMP DP  RH WIND       PRES   REMARKS
GREELEY ARPT   FAIR      30  15  53 W6        29.70F WCI  24
AKRON          FAIR      22  17  81 NW8       29.69F WCI  12
BURLINGTON     FAIR      23  19  85 NW10      29.71F WCI  12
WRAY           NOT AVBL
STERLING       FAIR      23  21  93 W3        29.69F
HOLYOKE        FAIR      32  27  80 NW9       29.71F WCI  24
FORT MORGAN    FAIR      25  23  92 CALM      29.70F
$$

COZ086-089-092>099-281100-
...SOUTHEAST COLORADO...

CITY           SKY/WX    TMP DP  RH WIND       PRES   REMARKS
PUEBLO         FAIR      27  15  61 N7        29.63R WCI  19
LA JUNTA       FAIR      39  22  50 SW8       29.65S
LAMAR          FAIR      27  12  53 N6        29.65R WCI  20
SPRINGFIELD      N/A     40  22  48 SW12      29.67S
$$




USA.gov is the U.S. government's official web portal to all federal, state and local government web resources and services.